Location: Roanoke
(37.2710°N, 79.9420°W)
Time: 22:43:13
(UTC-05:00)

Courier 1B Rocket - Pass Details

Date: 17 November 2019
Orbit: 920 x 1202 km, 28.2° (Epoch: 05 December)

Event Time Altitude Azimuth Distance (km) Brightness Sun altitude
Rises 18:39:00 0° 260° (W) 3,983 9.9 -18.1°
Reaches altitude 10° 18:41:56 10° 254° (WSW) 3,055 8.8 -18.6°
Maximum altitude 18:48:57 41° 187° (S) 1,662 6.3 -20.0°
Enters shadow 18:54:03 19° 129° (SE) 2,516 6.8 -21.0°
Drops below altitude 10° 18:56:09 10° 120° (ESE) 3,127 - -21.4°
Sets 18:59:11 0° 114° (ESE) 4,085 - -22.0°
